This is the latest recevied weather packets stored in our database for station/object KB2SKP. If no packets are shown the sender has not sent any weather packets the latest 10 day(s).
| Time | Temp. | Humidity | Pressure | Rain* | Wind** | Luminosity | Snow |
|---|---|---|---|---|---|---|---|
| 1777567635 | 20° C | 45% | 1004.7 hPa | 0 mm | - | 53 W/m² | - |
| 1777567333 | 19.44° C | 46% | 1004.5 hPa | 0 mm | - | 47 W/m² | - |
| 1777567031 | 20° C | 46% | 1004.6 hPa | 0 mm | - | 20 W/m² | - |
| 1777566729 | 19.44° C | 46% | 1004.7 hPa | 0 mm | - | 38 W/m² | - |
| 1777566426 | 19.44° C | 47% | 1004.7 hPa | 0 mm | - | 44 W/m² | - |
| 1777566123 | 19.44° C | 48% | 1004.7 hPa | 0 mm | - | 45 W/m² | - |
| 1777565818 | 19.44° C | 50% | 1004.8 hPa | 0 mm | - | 43 W/m² | - |
| 1777565515 | 18.89° C | 49% | 1004.5 hPa | 0 mm | - | 53 W/m² | - |
| 1777565211 | 18.89° C | 49% | 1004.8 hPa | 0 mm | - | 54 W/m² | - |
| 1777564908 | 18.89° C | 50% | 1004.8 hPa | 0 mm | - | 45 W/m² | - |
| 1777564603 | 18.33° C | 50% | 1004.7 hPa | 0 mm | - | 158 W/m² | - |
| 1777564298 | 18.33° C | 51% | 1004.9 hPa | 0 mm | - | 61 W/m² | - |
| 1777563995 | 17.78° C | 51% | 1004.8 hPa | 0 mm | - | 61 W/m² | - |
| 1777563691 | 17.78° C | 51% | 1004.8 hPa | 0 mm | - | 92 W/m² | - |
| 1777563387 | 18.33° C | 51% | 1004.8 hPa | 0 mm | - | 80 W/m² | - |
| 1777563082 | 17.78° C | 54% | 1004.8 hPa | 0 mm | - | 81 W/m² | - |
| 1777562778 | 17.78° C | 51% | 1004.9 hPa | 0 mm | - | 90 W/m² | - |
| 1777562476 | 17.78° C | 55% | 1005.2 hPa | 0 mm | - | 94 W/m² | - |
| 1777562173 | 17.78° C | 51% | 1005.2 hPa | 0 mm | - | 86 W/m² | - |
| 1777561865 | 17.78° C | 54% | 1005 hPa | 0 mm | - | 64 W/m² | - |
| 1777561562 | 17.22° C | 53% | 1005 hPa | 0 mm | - | 142 W/m² | - |
| 1777561257 | 17.22° C | 52% | 1005.2 hPa | 0 mm | - | 60 W/m² | - |
| 1777560957 | 17.22° C | 55% | 1005.3 hPa | 0 mm | - | 182 W/m² | - |
| 1777560654 | 17.22° C | 58% | 1005.3 hPa | 0 mm | - | 104 W/m² | - |
| 1777560351 | 16.67° C | 58% | 1005.4 hPa | 0 mm | - | 110 W/m² | - |
* Rain latest hour (hover to see other rain measurements)
** Current wind speed in m/s (hover to see current wind gust speed)